Location: Rounton
(54.4000°N, 1.3500°W)
Time: 00:44:11
(UTC+00:00)

Explorer 7 - Pass Details

Date: 07 December 2021
Orbit: 483 x 674 km, 50.3° (Epoch: 18 January)

Event Time Altitude Azimuth Distance (km) Brightness Sun altitude
Exits shadow 07:04:24 - 254° (WSW) 2,402 9.6 -9.0°
Reaches altitude 10° 07:05:47 10° 250° (WSW) 1,864 9.1 -8.9°
Maximum altitude 07:09:51 47° 177° (S) 722 7.7 -8.3°
Drops below altitude 10° 07:13:41 10° 103° (ESE) 1,757 10.9 -7.8°
Sets 07:15:53 0° 97° (E) 2,618 11.8 -7.6°
